This is the latest recevied weather packets stored in our database for station/object OZ7MKS. If no packets are shown the sender has not sent any weather packets the latest 10 day(s).
| Time | Temp. | Humidity | Pressure | Rain* | Wind** | Luminosity | Snow |
|---|---|---|---|---|---|---|---|
| 1777984504 | 13.89° C | 53% | 1012.4 hPa | 0 mm | - | - | - |
| 1777983904 | 13.89° C | 50% | 1012.4 hPa | 0 mm | - | - | - |
| 1777981804 | 13.33° C | 55% | 1012.5 hPa | 0 mm | - | - | - |
| 1777981504 | 13.33° C | 55% | 1012.4 hPa | 0 mm | - | - | - |
| 1777979404 | 12.78° C | 62% | 1012.5 hPa | 0 mm | - | - | - |
| 1777978504 | 12.78° C | 61% | 1012.6 hPa | 0 mm | - | - | - |
| 1777976704 | 12.78° C | 64% | 1012.5 hPa | 0 mm | - | - | - |
| 1777975204 | 12.22° C | 66% | 1012.4 hPa | 0 mm | - | - | - |
| 1777974604 | 12.22° C | 67% | 1012.4 hPa | 0 mm | - | - | - |
| 1777972804 | 11.67° C | 71% | 1012.6 hPa | 0 mm | - | - | - |
| 1777972504 | 11.67° C | 69% | 1012.6 hPa | 0 mm | - | - | - |
| 1777971904 | 11.67° C | 71% | 1012.6 hPa | 0 mm | - | - | - |
| 1777970404 | 11.11° C | 69% | 1012.7 hPa | 0 mm | - | - | - |
| 1777968903 | 10° C | 72% | 1012.6 hPa | 0 mm | - | - | - |
| 1777968304 | 10° C | 72% | 1012.6 hPa | 0 mm | - | - | - |
| 1777963803 | 8.33° C | 78% | 1012.6 hPa | 0 mm | - | - | - |
| 1777962304 | 8.33° C | 81% | 1012.7 hPa | 0 mm | - | - | - |
| 1777959904 | 7.22° C | 85% | 1012.6 hPa | 0 mm | - | - | - |
| 1777958704 | 7.22° C | 89% | 1012.6 hPa | 0 mm | - | - | - |
| 1777958404 | 7.22° C | 90% | 1012.4 hPa | 0 mm | - | - | - |
| 1777957805 | 6.67° C | 92% | 1012.4 hPa | 0 mm | - | - | - |
| 1777957204 | 6.67° C | 93% | 1012.4 hPa | 0 mm | - | - | - |
| 1777956904 | 6.11° C | 93% | 1012.4 hPa | 0 mm | - | - | - |
| 1777955405 | 6.11° C | 95% | 1012.3 hPa | 0 mm | - | - | - |
| 1777953004 | 6.11° C | 95% | 1012.1 hPa | 0 mm | - | - | - |
* Rain latest hour (hover to see other rain measurements)
** Current wind speed in m/s (hover to see current wind gust speed)